This is the latest recevied weather packets stored in our database for station/object G0TGD-10. If no packets are shown the sender has not sent any weather packets the latest 10 day(s).
| Time | Temp. | Humidity | Pressure | Rain* | Wind** | Luminosity | Snow |
|---|---|---|---|---|---|---|---|
| 1777547131 | 23.89° C | 36% | 1023.2 hPa | - | - | - | - |
| 1777546231 | 23.33° C | 39% | 1023.3 hPa | - | - | - | - |
| 1777545331 | 22.78° C | 40% | 1023.4 hPa | - | - | - | - |
| 1777544431 | 22.78° C | 41% | 1023.5 hPa | - | - | - | - |
| 1777543531 | 21.67° C | 41% | 1023.7 hPa | - | - | - | - |
| 1777542631 | 21.67° C | 42% | 1024 hPa | - | - | - | - |
| 1777541731 | 21.11° C | 42% | 1024 hPa | - | - | - | - |
| 1777540831 | 20.56° C | 43% | 1024.2 hPa | - | - | - | - |
| 1777539931 | 19.44° C | 45% | 1024.3 hPa | - | - | - | - |
| 1777539030 | 18.89° C | 46% | 1024.4 hPa | - | - | - | - |
| 1777538130 | 18.33° C | 47% | 1024.6 hPa | - | - | - | - |
| 1777537230 | 18.33° C | 49% | 1024.7 hPa | - | - | - | - |
| 1777536330 | 18.33° C | 50% | 1024.8 hPa | - | - | - | - |
| 1777535430 | 17.22° C | 52% | 1024.9 hPa | - | - | - | - |
| 1777534530 | 15.56° C | 55% | 1024.9 hPa | - | - | - | - |
| 1777533630 | 12.78° C | 59% | 1025.1 hPa | - | - | - | - |
| 1777532730 | 10.56° C | 58% | 1025.2 hPa | - | - | - | - |
| 1777531830 | 9.44° C | 58% | 1025.2 hPa | - | - | - | - |
| 1777530930 | 8.33° C | 58% | 1025.3 hPa | - | - | - | - |
| 1777530030 | 7.22° C | 58% | 1025.3 hPa | - | - | - | - |
| 1777529129 | 6.67° C | 58% | 1025.4 hPa | - | - | - | - |
| 1777528229 | 5.56° C | 58% | 1025.5 hPa | - | - | - | - |
| 1777527329 | 5.56° C | 58% | 1025.6 hPa | - | - | - | - |
| 1777526429 | 5° C | 58% | 1025.5 hPa | - | - | - | - |
| 1777525529 | 4.44° C | 58% | 1025.5 hPa | - | - | - | - |
* Rain since midnight (hover to see other rain measurements)
** Current wind speed in m/s (hover to see current wind gust speed)